Hamilton Island Airport, Australia

9:35 AM AEST on February 11, 2016 (GMT +1000)
Hamilton Island

Weather History for YBHM - September, 2012

Change the Weather History Date:

Saturday, September 1, 2012

  Actual Average Record
Temperature  
Mean Temperature 68 °F -  
Max Temperature 71 °F - - ()
Min Temperature 66 °F - - ()
Cooling Degree Days 4    
Growing Degree Days 18 (Base 50)    
Moisture  
Dew Point 58 °F    
Average Humidity 68    
Maximum Humidity 83    
Minimum Humidity 49    
Precipitation  
Precipitation 0.00 in - - ()
Sea Level Pressure  
Sea Level Pressure 30.05 in    
Wind  
Wind Speed 13 mph ()    
Max Wind Speed 29 mph    
Max Gust Speed -    
T = Trace of Precipitation, MM = Missing Value Source: Averaged Metar Reports

Daily Weather History Graph

Daily Weather History Graph

Search for Another Location

Airport or City:

Trip Planner

Search our weather history database for the weather conditions in past years. The results will help you decide how hot, cold, wet, or windy it might be!

Date:

Astronomy

Sep. 01, 2012 Rise Set
Actual Time 6:13 AM AEST 5:55 PM AEST
Civil Twilight 5:50 AM AEST 6:17 PM AEST
Nautical Twilight 5:25 AM AEST 6:43 PM AEST
Astronomical Twilight 4:59 AM AEST 7:09 PM AEST
Moon 6:31 PM AEST (9/1) 6:11 AM AEST (9/1)
Length of Visible Light 12h 27m
Length of Day
11h 42m
Full, 100% of the Moon is Illuminated
Sep 1
Full
Sep 8
Last Quarter
Sep 16
New
Sep 23
First Quarter
Sep 30
Full

Hourly Weather History & Observations

Time (AEST) Temp. Dew Point Humidity Pressure Visibility Wind Dir Wind Speed Gust Speed Precip Events Conditions
12:00 AM 68 °F 62 °F 74% 30.05 in - SSW 5.8 mph - -  
12:00 AM 68.0 °F 62.6 °F 83% 30.04 in - SSW 5.8 mph - N/A   Unknown
12:30 AM 68.0 °F 60.8 °F 78% 30.06 in - WSW 11.5 mph - N/A   Unknown
1:00 AM 68.0 °F 60.8 °F 78% 30.04 in - WSW 5.8 mph - N/A   Unknown
1:30 AM 68.0 °F 60.8 °F 78% 30.04 in - WSW 6.9 mph - N/A   Unknown
2:00 AM 68.0 °F 60.8 °F 78% 30.04 in - SW 6.9 mph - N/A   Unknown
2:30 AM 68.0 °F 60.8 °F 78% 30.04 in - SW 4.6 mph - N/A   Unknown
3:00 AM 67 °F 61 °F 77% 30.01 in - SSE 5.8 mph - -  
3:00 AM 68.0 °F 60.8 °F 78% 30.01 in - SSE 5.8 mph - N/A   Unknown
3:30 AM 68.0 °F 60.8 °F 78% 30.01 in - Calm Calm - N/A   Unknown
4:00 AM 68.0 °F 60.8 °F 78% 29.98 in - Calm Calm - N/A   Unknown
4:30 AM 68.0 °F 60.8 °F 78% 29.98 in - East 8.1 mph - N/A   Unknown
5:00 AM 68.0 °F 62.6 °F 83% 30.01 in - SE 11.5 mph - N/A   Unknown
5:30 AM 68.0 °F 62.6 °F 83% 30.01 in - SE 15.0 mph - N/A   Unknown
6:00 AM 67 °F 61 °F 77% 30.03 in - South 17.3 mph - -  
6:00 AM 68.0 °F 60.8 °F 78% 30.04 in - South 17.3 mph - N/A   Unknown
6:30 AM 66.2 °F 60.8 °F 83% 30.04 in - South 15.0 mph - N/A   Unknown
7:00 AM 68.0 °F 60.8 °F 78% 30.04 in - SSE 18.4 mph - N/A   Unknown
7:30 AM 68.0 °F 59.0 °F 73% 30.06 in - SSE 18.4 mph - N/A   Unknown
8:00 AM 69.8 °F 60.8 °F 73% 30.06 in - SSE 20.7 mph - N/A   Unknown
8:30 AM 69.8 °F 59.0 °F 68% 30.09 in - SE 25.3 mph - N/A   Unknown
9:00 AM 69 °F 55 °F 51% 30.10 in - SE 27.6 mph - -  
9:00 AM 69.8 °F 55.4 °F 60% 30.09 in - SE 27.6 mph - N/A   Unknown
9:30 AM 69.8 °F 51.8 °F 53% 30.09 in - SE 28.8 mph - N/A   Unknown
10:00 AM 69.8 °F 51.8 °F 53% 30.09 in - SSE 28.8 mph - N/A   Unknown
10:30 AM 69.8 °F 51.8 °F 53% 30.09 in - SSE 27.6 mph - N/A   Unknown
11:00 AM 68.0 °F 51.8 °F 56% 30.09 in - SSE 27.6 mph - N/A   Unknown
11:30 AM 69.8 °F 53.6 °F 56% 30.09 in - SSE 27.6 mph - N/A   Unknown
12:00 PM 71 °F 56 °F 49% 30.09 in - SSE 24.2 mph - -  
12:00 PM 71.6 °F 55.4 °F 57% 30.06 in - SSE 24.2 mph - N/A   Unknown
12:30 PM 69.8 °F 53.6 °F 56% 30.06 in - SSE 23.0 mph - N/A   Unknown
1:00 PM 69.8 °F 55.4 °F 60% 30.06 in - SE 21.9 mph - N/A   Unknown
1:30 PM 71.6 °F 55.4 °F 57% 30.06 in - SE 19.6 mph - N/A   Unknown
2:00 PM 71.6 °F 55.4 °F 57% 30.04 in - SE 18.4 mph - N/A   Unknown
2:30 PM 69.8 °F 55.4 °F 60% 30.04 in - SE 17.3 mph - N/A   Unknown
3:00 PM 69 °F 56 °F 53% 30.02 in - ESE 19.6 mph - -  
3:00 PM 69.8 °F 55.4 °F 60% 30.01 in - ESE 19.6 mph - N/A   Unknown
3:30 PM 68.0 °F 55.4 °F 64% 30.01 in - ESE 19.6 mph - N/A   Unknown
4:00 PM 68.0 °F 55.4 °F 64% 30.01 in - ESE 19.6 mph - N/A   Unknown
4:30 PM 68.0 °F 57.2 °F 68% 30.01 in - ESE 17.3 mph - N/A   Unknown
5:00 PM 68.0 °F 57.2 °F 68% 30.04 in - ESE 17.3 mph - N/A   Unknown
5:30 PM 68.0 °F 57.2 °F 68% 30.04 in - ESE 17.3 mph - N/A   Unknown
6:00 PM 67 °F 57 °F 62% 30.04 in - East 19.6 mph - -  
6:00 PM 68.0 °F 57.2 °F 68% 30.04 in - East 19.6 mph - N/A   Unknown
6:30 PM 68.0 °F 55.4 °F 64% 30.04 in - East 19.6 mph - N/A   Unknown
7:00 PM 68.0 °F 55.4 °F 64% 30.06 in - East 19.6 mph - N/A   Unknown
7:30 PM 68.0 °F 55.4 °F 64% 30.06 in - ESE 19.6 mph - N/A   Unknown
8:00 PM 68.0 °F 55.4 °F 64% 30.06 in - ESE 17.3 mph - N/A   Unknown
8:30 PM 68.0 °F 57.2 °F 68% 30.09 in - ESE 15.0 mph - N/A   Unknown
9:00 PM 67 °F 57 °F 61% 30.10 in - ESE 16.1 mph - -  
9:00 PM 68.0 °F 57.2 °F 68% 30.09 in - ESE 16.1 mph - N/A   Unknown
9:30 PM 66.2 °F 55.4 °F 68% 30.09 in - ESE 12.7 mph - N/A   Unknown
10:00 PM 66.2 °F 57.2 °F 73% 30.09 in - SE 12.7 mph - N/A   Unknown
10:30 PM 66.2 °F 57.2 °F 73% 30.09 in - SE 13.8 mph - N/A   Unknown
11:00 PM 66.2 °F 57.2 °F 73% 30.09 in - SE 13.8 mph - N/A   Unknown
11:30 PM 66.2 °F 57.2 °F 73% 30.09 in - SE 13.8 mph - N/A   Unknown